map of FMY home
FMY - Airport
Location
City:  Fort Myers, Florida, United States
Name:Page Field
ICAO:KFMY
IATA:FMY
FAA LID:FMY

Details
Type:Airport (Airfield)
Use:Public/Civil
Latitude:2635'12"N (26.586611)
Longitude:8151'48"W (-81.863249)
Datum:WGS 1984
Elevation:17 ft (5 m)
Variation:5.78W (WMM2015 magnetic declination)
-0.10 annual change
Runways:2
Longest:6406 × 150 ft (1953 × 45.5 m), paved

Time
Time Zone:UTC-5 (DST-4)
Local Time:

Weather
METAR:KFMY 140853Z AUTO 00000KT 8SM CLR 09/08 A3004 RMK AO2 SLP174 T00940083 58004 $
TAF:KFMY 140530Z 1406/1506 00000KT P6SM SKC
TEMPO 1409/1412 5SM BR
FM141500 18005KT P6SM FEW025 SCT050
FM141700 23007KT P6SM SCT030 BKN050
FM150200 VRB03KT P6SM BKN050

Related Locations
Nearby:
Farthest:USL: 11500 mi / 18508 km
Useless Loop, WA, AU

Find:

   beyond  
but within

Other Information
Maps:
Delays:
NOTAMs:
Links:
Sources:

  
flag of United States
flag of Florida
  

Airport Diagram

Airport diagram for FMY

Airport diagram PDF

Sectional Chart

Flight Planning
at skyvector.com

Satellite Image

Google Maps Satellite view

 

Copyright © 2004-2017 Karl L. Swartz. All rights reserved.
The Great Circle Mapper name and logo are trademarks of the Great Circle Mapper.
All other trademarks mentioned herein belong to their respective owners.
Please see credits for attibutions and further copyright information.

  Follow gcmap on Facebook Follow gcmap on Twitter Follow gcmap on Google+ GCmap on LinkedIn

hCard Microformat

Geo Microformat